Weather Service Report


292 
ASUS42 KFFC 270410
RWRGA 
WEATHER ROUNDUP FOR GEORGIA
NATIONAL WEATHER SERVICE PEACHTREE CITY GA
1100 PM EST SUN FEB 26 2017

NOTE: "FAIR" INDICATES FEW OR NO CLOUDS BELOW 12,000 FEET WITH NO
SIGNIFICANT WEATHER AND/OR OBSTRUCTIONS TO VISIBILITY. 

* = USE WITH CAUTION. THE STATIONS MARKED WITH AN ASTERISK MAY NOT
REPORT WEATHER SUCH AS PRECIPITATION, FOG, OR THUNDER AND ARE NOT 
QUALITY CONTROLLED BY NWS.

THE REMARK "TC" DENOTES TEMPERATURE READING IN DEGREES CELSIUS.

GAZ001>058-270500-
NORTH GEORGIA
  
CITY           SKY/WX    TMP DP  RH WIND       PRES   REMARKS
ATLANTA        FAIR      51  23  33 E5        30.23S                  
ATHENS         FAIR      41  26  55 S3        30.26R                  
CHAMBLEE       FAIR      41  28  60 CALM      30.23S                  
PEACHTREE CITY FAIR      38  32  79 CALM      30.24S                  
ROME           FAIR      41  28  60 CALM      30.20F                  
WEST ATLANTA   FAIR      41  28  60 CALM      30.24R                  
GAINESVILLE    FAIR      45  22  40 CALM      30.25S                  
CARTERSVILLE   FAIR      37  29  72 CALM      30.22F                  

  
CITY           SKY/WX    TMP DP  RH WIND       PRES   REMARKS
DALTON*        FAIR      37  30  75 CALM      30.21F                  
MARIETTA       CLEAR     44  27  50 CALM      30.23S                  
KENNESAW*      CLEAR     43  30  61 CALM      30.27F                  
CANTON*        FAIR      45  12  26 CALM      30.25S                  
$$

GAZ059>098-102>109-270500-
CENTRAL GEORGIA
  
CITY           SKY/WX    TMP DP  RH WIND       PRES   REMARKS
AUGUSTA-BUSH   FAIR      41  31  67 CALM      30.28R                  
AUGUSTA-DANIEL FAIR      51  26  37 SE3       30.28R                  
COLUMBUS       FAIR      51  29  42 E5        30.23S                  
MACON          FAIR      44  28  53 CALM      30.26S                  
ROBINS AFB     FAIR      45  35  68 CALM      30.26R                  

  
CITY           SKY/WX    TMP DP  RH WIND       PRES   REMARKS
LAGRANGE*      FAIR      41  36  84 CALM      30.22S                  
SYLVANIA*      FAIR     N/A N/A N/A CALM      30.30R                  
MILLEDGEVILLE* FAIR      43  37  81 CALM      30.27S                  
$$

GAZ099>101-110>166-270500-
SOUTH GEORGIA
  
CITY           SKY/WX    TMP DP  RH WIND       PRES   REMARKS
SAVANNAH       FAIR      47  38  71 CALM      30.30R                  
VALDOSTA       FAIR      53  32  44 E3        30.25R                  
ALMA           FAIR      43  39  86 CALM      30.28R                  
ST SIMONS      FAIR      60  39  45 E9        30.27S                  
FT STEWART     FAIR      45  39  79 CALM      30.27R                  
ALBANY         FAIR      47  35  63 CALM      30.26R                  
HUNTER AFB     FAIR      48  43  84 CALM      30.27R                  
MOODY AFB      FAIR      52  32  46 E7        30.24R                  
BRUNSWICK      FAIR      45  45 100 CALM      30.29R FOG              

  
CITY           SKY/WX    TMP DP  RH WIND       PRES   REMARKS
BAINBRIDGE*    FAIR      52  37  58 CALM      30.23S                  
MOULTRIE*      FAIR      52  34  50 E3        30.25R                  
VIDALIA*       FAIR      46  41  81 SE3       30.28R                  
WAYCROSS*      FAIR      47  44  87 CALM      30.27S                  
DOUGLAS*       FAIR      54  32  43 SE3       30.28S                  
$$
  

Return to Home page


Western Regional Climate Center, wrcc@dri.edu